Terug naar catalogus

KUIPER-00080

ActiefCommunicatieLEO
NORAD 64827·PAYLOAD·🇺🇸 United States

Gelanceerd Jul 16, 2025 vanaf Cape Canaveral Space Force Station

Loading…

Volgende Passages (komende 24 uur)

TLE

VersSource: CelesTrak SupGP

Epoch: Sep 14, 2026, 15:37 UTC

1 64827C 25151M   26257.65072917  .00004453  00000+0  58294-3 0  2573
2 64827  51.8989 184.9768 0000764  92.8541 139.0389 14.79921168    10

Volg KUIPER-00080 in realtime met AllMySat

Download on the App Store